• In Deutschland
  • Länderverzeichnis
  • Für 7 Tage
  • Wassertemperatur
  • Satellitenkarten
  • Wetterkarte
  • Widgets
  • user-avatar
    Anmelden

    Stündliche Wetter Rodgau

    Heute, 22 Februar, Donnerstag

    Zeit Temperatur Niederschläge Wind Luftdruck Luftfeuchtigkeit
    00:00 -3°C° 0 mm 4 m/S 752 mmHg 69%
    01:00 -3°C° 0 mm 4 m/S 752 mmHg 69%
    02:00 -3°C° 0 mm 4 m/S 752 mmHg 68%
    03:00 -3°C° 0 mm 4 m/S 752 mmHg 67%
    04:00 -3°C° 0 mm 4 m/S 752 mmHg 66%
    05:00 -4°C° 0 mm 4 m/S 752 mmHg 63%
    06:00 -4°C° 0 mm 4 m/S 752 mmHg 60%
    07:00 -4°C° 0 mm 4 m/S 752 mmHg 58%
    08:00 -4°C° 0 mm 5 m/S 752 mmHg 53%
    09:00 -2°C° 0 mm 5 m/S 752 mmHg 48%
    10:00 -3°C° 0 mm 6 m/S 752 mmHg 43%
    11:00 -2°C° 0 mm 6 m/S 752 mmHg 42%
    12:00 -1°C° 0 mm 6 m/S 752 mmHg 40%
    13:00 +1°C° 0 mm 6 m/S 751 mmHg 38%
    14:00 +1°C° 0 mm 6 m/S 751 mmHg 39%
    15:00 +1°C° 0 mm 6 m/S 751 mmHg 40%
    16:00 +1°C° 0 mm 6 m/S 751 mmHg 41%
    17:00 0°C° 0 mm 5 m/S 751 mmHg 46%
    18:00 -1°C° 0 mm 5 m/S 751 mmHg 50%
    19:00 -2°C° 0 mm 5 m/S 751 mmHg 54%
    20:00 -4°C° 0 mm 5 m/S 751 mmHg 56%
    21:00 -4°C° 0 mm 5 m/S 751 mmHg 57%
    22:00 -4°C° 0 mm 5 m/S 751 mmHg 58%
    23:00 -4°C° 0 mm 5 m/S 751 mmHg 58%

    Morgen, 23 Februar, Freitag

    Zeit Temperatur Niederschläge Wind Luftdruck Luftfeuchtigkeit
    00:00 -5°C° 0 mm 5 m/S 751 mmHg 58%
    01:00 -5°C° 0 mm 5 m/S 751 mmHg 58%
    02:00 -5°C° 0 mm 5 m/S 751 mmHg 58%
    03:00 -5°C° 0 mm 5 m/S 751 mmHg 57%
    04:00 -4°C° 0 mm 4 m/S 750 mmHg 57%
    05:00 -5°C° 0 mm 5 m/S 750 mmHg 57%
    06:00 -6°C° 0 mm 5 m/S 750 mmHg 56%
    07:00 -6°C° 0 mm 5 m/S 750 mmHg 55%
    08:00 -5°C° 0 mm 5 m/S 751 mmHg 51%
    09:00 -4°C° 0 mm 5 m/S 751 mmHg 46%
    10:00 -4°C° 0 mm 5 m/S 751 mmHg 42%
    11:00 -2°C° 0 mm 5 m/S 751 mmHg 38%
    12:00 -1°C° 0 mm 5 m/S 751 mmHg 35%
    13:00 -1°C° 0 mm 6 m/S 750 mmHg 31%
    14:00 +1°C° 0 mm 6 m/S 750 mmHg 32%
    15:00 +1°C° 0 mm 6 m/S 750 mmHg 33%
    16:00 +1°C° 0 mm 6 m/S 750 mmHg 33%
    17:00 0°C° 0 mm 5 m/S 750 mmHg 36%
    18:00 -1°C° 0 mm 5 m/S 750 mmHg 40%
    19:00 -2°C° 0 mm 5 m/S 750 mmHg 43%
    20:00 -2°C° 0 mm 5 m/S 750 mmHg 44%
    21:00 -4°C° 0 mm 5 m/S 750 mmHg 45%
    22:00 -4°C° 0 mm 5 m/S 751 mmHg 46%
    23:00 -4°C° 0 mm 5 m/S 751 mmHg 46%

    übermorgen, 24 Februar, Samstag

    Zeit Temperatur Niederschläge Wind Luftdruck Luftfeuchtigkeit
    00:00 -4°C° 0 mm 5 m/S 751 mmHg 46%
    01:00 -4°C° 0 mm 5 m/S 751 mmHg 47%
    02:00 -4°C° 0 mm 5 m/S 751 mmHg 46%
    03:00 -5°C° 0 mm 5 m/S 751 mmHg 45%
    04:00 -5°C° 0 mm 5 m/S 751 mmHg 44%
    05:00 -5°C° 0 mm 5 m/S 751 mmHg 42%
    06:00 -5°C° 0 mm 5 m/S 751 mmHg 39%
    07:00 -5°C° 0 mm 5 m/S 751 mmHg 37%
    08:00 -4°C° 0 mm 5 m/S 752 mmHg 34%
    09:00 -3°C° 0 mm 6 m/S 752 mmHg 31%
    10:00 -2°C° 0 mm 6 m/S 752 mmHg 28%
    11:00 -1°C° 0 mm 7 m/S 752 mmHg 28%
    12:00 0°C° 0 mm 7 m/S 752 mmHg 28%
    13:00 +2°C° 0 mm 7 m/S 752 mmHg 28%
    14:00 +2°C° 0 mm 7 m/S 752 mmHg 31%
    15:00 +2°C° 0 mm 7 m/S 751 mmHg 34%
    16:00 +2°C° 0 mm 7 m/S 751 mmHg 37%
    17:00 -1°C° 0 mm 7 m/S 752 mmHg 38%
    18:00 -2°C° 0 mm 7 m/S 752 mmHg 39%
    19:00 -3°C° 0 mm 6 m/S 753 mmHg 40%
    20:00 -4°C° 0 mm 6 m/S 753 mmHg 38%
    21:00 -4°C° 0 mm 6 m/S 753 mmHg 37%
    22:00 -5°C° 0 mm 6 m/S 754 mmHg 35%
    23:00 -5°C° 0 mm 6 m/S 754 mmHg 34%

    25 Februar, Sonntag

    Zeit Temperatur Niederschläge Wind Luftdruck Luftfeuchtigkeit
    00:00 -6°C° 0 mm 6 m/S 754 mmHg 33%
    01:00 -6°C° 0 mm 6 m/S 754 mmHg 32%
    02:00 -6°C° 0 mm 6 m/S 754 mmHg 32%
    03:00 -8°C° 0 mm 6 m/S 754 mmHg 32%
    04:00 -8°C° 0 mm 6 m/S 754 mmHg 32%
    05:00 -8°C° 0 mm 6 m/S 754 mmHg 32%
    06:00 -9°C° 0 mm 6 m/S 754 mmHg 33%
    07:00 -9°C° 0 mm 6 m/S 755 mmHg 34%
    08:00 -8°C° 0 mm 6 m/S 755 mmHg 33%
    09:00 -8°C° 0 mm 6 m/S 755 mmHg 33%
    10:00 -8°C° 0 mm 6 m/S 755 mmHg 32%
    11:00 -6°C° 0 mm 6 m/S 755 mmHg 30%
    12:00 -5°C° 0 mm 6 m/S 755 mmHg 28%
    13:00 -4°C° 0 mm 6 m/S 755 mmHg 26%
    14:00 -4°C° 0 mm 6 m/S 755 mmHg 26%
    15:00 -4°C° 0 mm 6 m/S 754 mmHg 26%
    16:00 -4°C° 0 mm 6 m/S 754 mmHg 26%
    17:00 -5°C° 0 mm 6 m/S 754 mmHg 28%
    18:00 -6°C° 0 mm 5 m/S 754 mmHg 30%
    19:00 -6°C° 0 mm 5 m/S 755 mmHg 32%
    20:00 -7°C° 0 mm 5 m/S 755 mmHg 33%
    21:00 -7°C° 0 mm 5 m/S 755 mmHg 34%
    22:00 -7°C° 0 mm 5 m/S 755 mmHg 35%
    23:00 -8°C° 0 mm 5 m/S 755 mmHg 36%

    26 Februar, Montag

    Zeit Temperatur Niederschläge Wind Luftdruck Luftfeuchtigkeit
    00:00 -8°C° 0 mm 5 m/S 755 mmHg 37%
    01:00 -8°C° 0 mm 5 m/S 755 mmHg 37%
    02:00 -10°C° 0 mm 5 m/S 755 mmHg 38%
    03:00 -10°C° 0 mm 5 m/S 755 mmHg 38%
    04:00 -9°C° 0 mm 4 m/S 754 mmHg 39%
    05:00 -10°C° 0 mm 4 m/S 754 mmHg 39%
    06:00 -10°C° 0 mm 4 m/S 754 mmHg 40%
    07:00 -10°C° 0 mm 4 m/S 754 mmHg 40%
    08:00 -11°C° 0 mm 5 m/S 754 mmHg 39%
    09:00 -10°C° 0 mm 5 m/S 754 mmHg 37%
    10:00 -10°C° 0 mm 5 m/S 755 mmHg 35%
    11:00 -8°C° 0 mm 5 m/S 754 mmHg 32%
    12:00 -7°C° 0 mm 5 m/S 754 mmHg 30%
    13:00 -6°C° 0 mm 5 m/S 754 mmHg 27%
    14:00 -6°C° 0 mm 5 m/S 753 mmHg 27%
    15:00 -6°C° 0 mm 5 m/S 753 mmHg 27%
    16:00 -6°C° 0 mm 5 m/S 752 mmHg 27%
    17:00 -6°C° 0 mm 5 m/S 752 mmHg 29%
    18:00 -7°C° 0 mm 4 m/S 752 mmHg 32%
    19:00 -8°C° 0 mm 4 m/S 752 mmHg 34%
    20:00 -8°C° 0 mm 4 m/S 752 mmHg 36%
    21:00 -8°C° 0 mm 4 m/S 752 mmHg 37%
    22:00 -9°C° 0 mm 4 m/S 752 mmHg 38%
    23:00 -9°C° 0 mm 4 m/S 752 mmHg 39%

    27 Februar, Dienstag

    Zeit Temperatur Niederschläge Wind Luftdruck Luftfeuchtigkeit
    00:00 -8°C° 0 mm 3 m/S 752 mmHg 40%
    01:00 -8°C° 0 mm 3 m/S 752 mmHg 41%
    02:00 -9°C° 0 mm 3 m/S 751 mmHg 42%
    03:00 -9°C° 0 mm 3 m/S 751 mmHg 43%
    04:00 -9°C° 0 mm 3 m/S 751 mmHg 44%
    05:00 -9°C° 0 mm 3 m/S 751 mmHg 45%
    06:00 -10°C° 0 mm 3 m/S 751 mmHg 45%
    07:00 -10°C° 0 mm 3 m/S 751 mmHg 45%
    08:00 -9°C° 0 mm 3 m/S 751 mmHg 42%
    09:00 -9°C° 0 mm 3 m/S 751 mmHg 38%
    10:00 -9°C° 0 mm 4 m/S 751 mmHg 35%
    11:00 -8°C° 0 mm 4 m/S 751 mmHg 32%
    12:00 -6°C° 0 mm 3 m/S 750 mmHg 29%
    13:00 -5°C° 0 mm 3 m/S 750 mmHg 26%
    14:00 -4°C° 0 mm 3 m/S 750 mmHg 27%
    15:00 -4°C° 0 mm 3 m/S 750 mmHg 28%
    16:00 -4°C° 0 mm 3 m/S 749 mmHg 28%
    17:00 -5°C° 0 mm 3 m/S 749 mmHg 32%
    18:00 -4°C° 0 mm 2 m/S 750 mmHg 37%
    19:00 -5°C° 0 mm 2 m/S 750 mmHg 41%
    20:00 -5°C° 0 mm 2 m/S 750 mmHg 43%
    21:00 -3°C° 0 mm 1 m/S 750 mmHg 46%
    22:00 -4°C° 0 mm 1 m/S 750 mmHg 49%
    23:00 -4°C° 0 mm 1 m/S 750 mmHg 51%
    Mehr zeigen